カタログに戻る

DELTA 1 DEB

運用中LEO
NORAD 7174·DEBRIS·🇺🇸 United States

打ち上げ Nov 6, 1973 から Vandenberg Space Force Base

Loading…

次のパス (今後24時間)

TLE

経年Source: Space-Track

元期: Sep 12, 2026, 08:58 UTC

1 07174U 73086EL  26255.37371707 -.00000384  00000-0 -33333-2 0  9992
2 07174 102.0872 301.5954 0296584   5.9406   6.4617 12.08900441341962

AllMySatでDELTA 1 DEBをリアルタイム追跡

Download on the App Store